Location: La Vall
(42.3650°N, 2.9236°E)
Time: 18:17:27
(UTC+00:00)

Daily predictions for brighter satellites

Satellite Brightness Start Highest point End
(mag) Time Altitude Azimuth Time Altitude Azimuth Time Altitude Azimuth
SeaSat 1 3.4 18:00:08 10° NE 18:04:22 28° ESE 18:08:33 10° SSE
Cosmos 1707 Rocket 3.5 18:00:26 10° N 18:04:49 71° E 18:09:08 10° SSE
CZ-4 R/B 1.5 18:03:38 10° SSE 18:07:19 47° ENE 18:11:04 10° N
H-2A R/B 2.3 18:02:04 10° SSE 18:07:19 53° ENE 18:12:37 10° N
CZ-2C R/B 3.5 18:04:48 10° NE 18:09:29 28° E 18:14:02 10° SSE
IRS-1C Rocket 4.1 18:05:54 10° SSE 18:11:07 69° ENE 18:16:23 10° N
SAR-Lupe-4 4.4 18:08:50 10° NE 18:12:02 29° E 18:15:11 10° SSE
Gbstr 26 Del rocket 4.5 18:08:32 10° WNW 18:12:25 32° NNW 18:17:01 10° NE
Meteor 1-20 Rocket 4.1 18:08:03 10° S 18:13:28 77° E 18:18:58 10° NNE
Cosmos 1302 Rocket 4.4 18:08:42 10° SSW 18:13:52 69° WNW 18:19:04 10° NNE
SL-4 R/B 3.6 18:12:52 10° NW 18:15:26 18° N 18:17:55 10° NE
ATLAS CENTAUR R/B 1.6 18:19:13 10° S 18:22:34 36° ESE 18:25:56 10° NE
Okean-O 2.6 18:22:43 10° SSE 18:27:06 67° ENE 18:31:31 10° N
Cosmos 44 Rocket 3.5 18:23:06 10° NNW 18:28:21 66° NE 18:33:29 10° SE
CSL-04 Rocket 4.0 18:23:16 10° SE 18:28:31 45° ENE 18:33:45 10° N
ERS-2 2.2 18:25:47 10° NNE 18:29:22 55° ESE 18:32:57 10° S
CSL-04 Debris 4.4 18:24:39 10° SE 18:29:51 50° ENE 18:35:07 10° N
Cosmos 2084 Rocket 3.8 18:26:25 10° NNW 18:30:38 47° NE 18:34:59 10° ESE
Cosmos 1844 Rocket 3.3 18:25:36 10° N 18:30:44 36° ENE 18:35:49 10° ESE
SAR-Lupe-1 4.1 18:27:58 10° NNE 18:31:31 54° E 18:35:02 10° S
Cosmos 1666 3.9 18:29:54 10° SE 18:32:36 19° E 18:35:19 10° NE
HJ-1C 3.4 18:31:51 10° SSE 18:35:05 52° ENE 18:38:19 10° N
Cosmos 1271 Rocket 3.9 18:31:38 10° NNW 18:35:13 45° W 18:38:49 10° SSW
Cosmos 2341 Rocket 4.4 18:30:36 10° SSE 18:36:24 40° E 18:42:11 10° NNE
Cosmos 1503 Rocket 4.2 18:32:23 10° N 18:37:27 49° ENE 18:42:26 10° SE
Cosmos 1470 Rocket 3.5 18:35:58 10° S 18:40:26 75° E 18:44:54 10° NNE
PSLV R/B 3.9 18:36:24 10° NNE 18:40:30 85° WNW 18:44:33 10° SSW
Cosmos 1844 4.3 18:37:12 10° N 18:42:33 38° ENE 18:46:58 14° ESE
Cosmos 2360 Rocket 2.2 18:37:20 10° S 18:42:52 61° ESE 18:48:26 10° NNE
Cosmos 1602 4.4 18:40:18 10° SSW 18:44:08 58° W 18:48:01 10° N
Ariane Rocket 4.2 18:42:04 17° E 18:44:10 21° ENE 18:47:57 10° NNE
CZ-4B R/B 3.8 18:41:51 10° NNW 18:44:20 23° WNW 18:46:51 10° SW
Cosmos 2278 Rocket 4.1 18:45:25 10° NNE 18:47:21 12° NE 18:48:36 11° NE
Meteor 1-19 Rocket 4.4 18:44:30 10° N 18:50:28 86° W 18:56:13 10° S
Cosmos 1500 3.0 18:47:29 10° S 18:51:10 74° E 18:54:55 10° NNE
Cosmos 2333 Rocket 2.9 18:48:11 10° SSE 18:53:07 31° ESE 18:58:05 10° NE
Meteor 2-4 Rocket 3.8 18:49:15 10° N 18:55:03 62° ENE 19:00:55 10° SSE
Cosmos 1703 Rocket 3.8 18:51:00 10° N 18:55:13 43° ENE 18:59:22 10° SSE
SL-08 RB Rocket 3.6 18:51:13 10° SSE 18:55:41 70° ENE 19:00:14 10° N
Meteor 2-12 Rocket 4.4 18:50:28 10° S 18:56:31 90° NW 19:02:39 10° N
Cosmos 1689 Rocket 3.1 18:55:02 10° N 18:57:49 47° WNW 19:00:36 10° SSW
Cosmos 1933 Rocket 3.4 18:57:00 10° S 19:01:20 83° E 19:05:44 10° N
BREEZE-M DEB (TANK) 3.2 19:01:31 10° SSW 19:03:36 35° SSE 19:03:36 35° SSE
Aureole 2 Rocket 2.1 19:03:21 10° NNW 19:05:51 58° WSW 19:06:52 29° S
Resurs 01 Rocket 3.8 19:12:41 12° NE 19:12:41 12° NE 19:13:22 10° NNE
Cosmos 2322 Rocket 3.3 19:07:37 10° SW 19:12:58 45° WNW 19:18:21 10° NNE
Cosmos 2242 Rocket 3.5 19:08:47 10° N 19:13:18 80° E 19:17:45 10° S
Lacrosse 4 Rocket 2.1 19:10:58 10° S 19:14:29 35° SE 19:14:29 35° SE
Abrixas rocket 3.7 19:14:26 10° NW 19:16:07 19° N 19:16:07 19° N
Helios 1A Rocket 3.7 19:14:11 10° S 19:18:08 51° W 19:22:06 10° NNW
YAOGAN 1 4.5 19:15:09 10° SSW 19:18:58 31° W 19:22:51 10° NNW
SME Rocket 4.1 19:12:13 10° NNE 19:19:46 55° E 19:24:45 10° S
Cosmos 192 4.3 19:15:34 10° S 19:20:20 56° ESE 19:25:09 10° NNE
SJ-6B 2.9 19:22:30 51° E 19:22:58 54° ENE 19:26:57 10° N
COSMOS 2428 3.0 19:17:50 10° S 19:23:06 40° ESE 19:24:51 32° ENE
GP-B 3.5 19:22:38 10° S 19:27:02 62° W 19:31:26 10° N
MOS 1 4.4 19:25:33 33° SE 19:27:48 53° ENE 19:33:19 10° N
ASTEX 1 3.4 19:24:02 10° NNE 19:28:49 52° E 19:30:11 39° SE
Cosmos 2219 Rocket 2.2 19:24:35 10° S 19:30:01 55° ESE 19:35:29 10° NNE
Meteor 1-11 Rocket 3.7 19:24:42 10° S 19:30:20 61° E 19:35:53 10° NNE
MetOp-A 4.0 19:26:57 12° SSE 19:31:54 85° ENE 19:37:17 10° NNW
OBJECT-B 2.9 19:36:24 19° N 19:36:24 19° N 19:37:27 10° N
SL-16 R/B 4.4 19:33:22 10° WSW 19:37:57 25° NW 19:42:34 10° N
SJ 16-02 3.2 19:38:00 10° N 19:39:35 18° NNE 19:39:35 18° NNE
SeaSat 1 3.7 19:37:19 10° NNE 19:41:56 41° NW 19:46:32 10° SW
Okean 1-7 3.5 19:38:07 10° NNW 19:42:26 59° W 19:45:45 16° S
Cosmos 1066 Rocket 4.2 19:39:05 10° N 19:44:46 62° ENE 19:45:41 54° ESE
USA 234 3.3 19:39:53 19° NE 19:44:49 81° NW 19:51:22 10° SW
Meteor 1-13 Rocket 4.2 19:39:13 10° N 19:45:12 86° E 19:48:31 27° S
IRS-1A Rocket 4.1 19:46:43 42° SSE 19:48:45 81° ENE 19:54:21 10° NNW
CZ-2C R/B 4.0 19:44:47 10° N 19:49:50 39° WNW 19:54:45 10° SW
Cosmos 2322 3.7 19:44:18 10° SSW 19:50:01 80° WNW 19:55:46 10° NNE
BREEZE-M DEB (TANK) 3.6 19:48:35 10° NW 19:51:10 36° NNE 19:51:10 36° NNE
Cosmos 1869 Rocket 4.0 19:51:22 10° SSW 19:55:40 61° W 20:00:02 10° N
SL-4 R/B 3.6 19:52:28 10° NW 19:54:13 24° NNW 19:54:13 24° NNW
SL-8 Rocket 4.4 19:51:52 10° SSW 19:58:02 62° W 20:04:12 10° N
ATLAS CENTAUR R/B 3.6 19:58:52 10° W 20:01:33 19° NW 20:03:10 15° N
Cosmos 2366 rocket 4.5 20:06:53 10° SSW 20:13:05 59° W 20:19:22 10° N
SL-08 R/B 4.4 20:11:58 47° S 20:14:03 86° E 20:20:34 10° N
Cosmos 1844 Rocket 4.1 20:09:35 10° NW 20:14:32 33° WSW 20:17:54 18° SSW
SPOT 3 Rocket 4.5 20:18:38 40° N 20:18:38 40° N 20:21:57 10° N
Cosmos 1777 Rocket 4.5 20:12:51 10° NNW 20:17:59 55° WSW 20:18:17 54° WSW
Ariane Rocket 3.7 20:22:15 48° WSW 20:22:45 50° W 20:27:43 10° NNW
Cosmos 2360 Rocket 4.4 20:22:56 10° WSW 20:27:18 22° NW 20:31:42 10° N
Cosmos 2278 Rocket 3.3 20:27:01 10° NNW 20:30:28 36° N 20:30:28 36° N
Cosmos 1727 Rocket 4.4 20:31:09 10° NNW 20:37:13 59° W 20:37:44 57° WSW
Cosmos 2333 Rocket 3.4 20:31:56 10° SW 20:37:14 39° WNW 20:42:36 10° NNE
Resurs 01 Rocket 4.2 20:50:14 16° NNW 20:50:14 16° NNW 20:51:13 10° NNW
Lacrosse 4 Rocket 4.2 20:50:01 10° WSW 20:50:57 15° W 20:50:57 15° W
COSMOS 2428 4.3 21:02:25 10° WSW 21:14:01 - NNE 21:07:13 31° WNW
Cosmos 2219 Rocket 4.2 21:09:52 10° WSW 21:14:19 24° NW 21:18:49 10° N
